Regional Weather Roundup
Issued by NWS

Home | Current Version | Previous Version | Text Only | Print | Product List | Glossary Off
Versions: 1 2 3 4 5 6 7 8 9 10 11 12 13 14 15 16 17 18 19 20 21 22 23 24 25 26 27 28 29 30 31 32 33 34 35 36 37 38 39 40 41 42 43 44 45 46 47 48 49 50

000
ASUS43 KBIS 261510
RWRND

NORTH DAKOTA REGIONAL WEATHER ROUNDUP
NATIONAL WEATHER SERVICE BISMARCK ND
1000 AM CDT TUE JUL 26 2016

NOTE: "FAIR" INDICATES FEW OR NO CLOUDS BELOW 12,000 FEET WITH NO
SIGNIFICANT WEATHER AND/OR OBSTRUCTIONS TO VISIBILITY.


NDZ001>003-009>011-017-261600-
NORTHWEST NORTH DAKOTA

CITY           SKY/WX    TMP DP  RH WIND       PRES   REMARKS
WILLISTON      CLOUDY    69  61  75 N6        30.07S
MINOT          SUNNY     77  66  68 NW7       30.03F
MINOT AFB      MOSUNNY   71  64  76 VRB3      30.02F
$$

NDZ018>021-031>035-040>046-261600-
SOUTHWEST NORTH DAKOTA

CITY           SKY/WX    TMP DP  RH WIND       PRES   REMARKS
BISMARCK       PTSUNNY   76  67  73 E12       29.97S
DICKINSON      LGT RAIN  63  61  93 E14       30.05F FOG
GARRISON         N/A     75  67  76 NE6       30.03R
HETTINGER ARPT CLOUDY    65  60  84 NW7       30.08S
$$

NDZ004>008-012>016-024-026-027-054-261600-
NORTHEAST NORTH DAKOTA

CITY           SKY/WX    TMP DP  RH WIND       PRES   REMARKS
GRAND FORKS    MOSUNNY   78  67  68 N3        29.97R
GRND FRKS AFB  CLOUDY    76  67  72 N5        29.99R
DEVILS LAKE    SUNNY     76  66  71 CALM      30.04R
$$

NDZ022-023-025-028>030-036>039-047>053-261600-
SOUTHEAST NORTH DAKOTA

CITY           SKY/WX    TMP DP  RH WIND       PRES   REMARKS
FARGO          CLOUDY    74  66  76 SW7       29.94S
JAMESTOWN      CLOUDY    75  69  81 NE3       29.98F
$$





USA.gov is the U.S. government's official web portal to all federal, state and local government web resources and services.